| time (UTC) | temp F | wind direction | speed knots | gust knots | rain 1hr in | rain 24hr in | rain mn in | humidity % | barometer mb |
| 20260508111445 | 58 | 39 | 0.0 | 0.0 | 0.00 | 0.00 | 0.00 | 81 | 1014.7 |
| 20260508110942 | 58 | 40 | 0.0 | 0.0 | 0.00 | 0.00 | 0.00 | 82 | 1014.6 |
| 20260508110440 | 58 | 60 | 0.0 | 0.0 | 0.00 | 0.00 | 0.00 | 82 | 1014.5 |
| 20260508105939 | 58 | 45 | 0.0 | 0.0 | 0.00 | 0.00 | 0.00 | 83 | 1014.6 |
| 20260508105436 | 59 | 43 | 0.0 | 0.0 | 0.00 | 0.00 | 0.00 | 83 | 1014.7 |
| 20260508104933 | 59 | 43 | 0.0 | 0.0 | 0.00 | 0.00 | 0.00 | 83 | 1014.5 |
| 20260508104431 | 59 | 43 | 0.0 | 0.0 | 0.00 | 0.00 | 0.00 | 83 | 1014.5 |
| 20260508103927 | 59 | 42 | 0.0 | 0.0 | 0.00 | 0.00 | 0.00 | 83 | 1014.5 |
| 20260508103424 | 60 | 27 | 0.0 | 0.0 | 0.00 | 0.00 | 0.00 | 83 | 1014.7 |
| 20260508102921 | 60 | 26 | 0.0 | 0.0 | 0.00 | 0.00 | 0.00 | 82 | 1014.3 |
| 20260508102420 | 60 | 26 | 0.0 | 0.0 | 0.00 | 0.00 | 0.00 | 82 | 1014.4 |
| 20260508101917 | 61 | 13 | 0.0 | 0.0 | 0.00 | 0.00 | 0.00 | 81 | 1014.5 |
| 20260508101414 | 61 | 312 | 0.0 | 0.0 | 0.00 | 0.00 | 0.00 | 81 | 1014.2 |
| 20260508100911 | 61 | 312 | 0.0 | 0.0 | 0.00 | 0.00 | 0.00 | 80 | 1014.5 |
| 20260508100410 | 62 | 2 | 0.0 | 0.0 | 0.00 | 0.00 | 0.00 | 80 | 1014.2 |
| 20260508095905 | 62 | 257 | 0.0 | 0.0 | 0.00 | 0.00 | 0.00 | 80 | 1014.2 |
| 20260508095403 | 62 | 297 | 0.9 | 0.9 | 0.00 | 0.00 | 0.00 | 80 | 1014.2 |
| 20260508094900 | 62 | 264 | 0.9 | 0.9 | 0.00 | 0.00 | 0.00 | 81 | 1014.2 |
| 20260508094356 | 62 | 294 | 0.0 | 0.0 | 0.00 | 0.00 | 0.00 | 81 | 1014.3 |
| 20260508093853 | 62 | 315 | 0.0 | 0.0 | 0.00 | 0.00 | 0.00 | 82 | 1014.1 |
| 20260508093351 | 62 | 315 | 0.0 | 0.0 | 0.00 | 0.00 | 0.00 | 81 | 1014.4 |
| 20260508092848 | 63 | 315 | 0.0 | 0.0 | 0.00 | 0.00 | 0.00 | 81 | 1014.0 |
| 20260508092346 | 63 | 315 | 0.0 | 0.0 | 0.00 | 0.00 | 0.00 | 80 | 1014.1 |
| 20260508091844 | 63 | 254 | 0.9 | 0.9 | 0.00 | 0.00 | 0.00 | 80 | 1014.2 |
| 20260508091340 | 63 | 11 | 0.0 | 0.0 | 0.00 | 0.00 | 0.00 | 79 | 1014.0 |
| 20260508090838 | 63 | 282 | 0.0 | 0.9 | 0.00 | 0.00 | 0.00 | 79 | 1014.1 |
| 20260508090337 | 64 | 37 | 0.0 | 0.0 | 0.00 | 0.00 | 0.00 | 78 | 1014.1 |
| 20260508085832 | 64 | 24 | 0.0 | 0.9 | 0.00 | 0.00 | 0.00 | 78 | 1014.1 |
| 20260508085329 | 64 | 355 | 0.9 | 0.9 | 0.00 | 0.00 | 0.00 | 78 | 1014.3 |
| 20260508084825 | 65 | 294 | 0.0 | 0.0 | 0.00 | 0.00 | 0.00 | 77 | 1014.0 |
| 20260508084322 | 65 | 32 | 0.0 | 0.0 | 0.00 | 0.00 | 0.00 | 76 | 1014.2 |
| 20260508083820 | 65 | 269 | 1.7 | 1.7 | 0.00 | 0.00 | 0.00 | 75 | 1014.2 |
| 20260508083317 | 65 | 266 | 1.7 | 1.7 | 0.00 | 0.00 | 0.00 | 75 | 1014.4 |
| 20260508082817 | 65 | 280 | 1.7 | 1.7 | 0.00 | 0.00 | 0.00 | 76 | 1014.2 |
| 20260508082315 | 65 | 306 | 1.7 | 3.5 | 0.00 | 0.00 | 0.00 | 76 | 1014.4 |
| 20260508081812 | 65 | 276 | 0.9 | 0.9 | 0.00 | 0.00 | 0.00 | 76 | 1014.4 |
| 20260508081309 | 66 | 293 | 0.9 | 0.9 | 0.00 | 0.00 | 0.00 | 75 | 1014.2 |
| 20260508080806 | 66 | 260 | 2.6 | 3.5 | 0.00 | 0.00 | 0.00 | 74 | 1014.3 |
| 20260508080304 | 66 | 267 | 1.7 | 1.7 | 0.00 | 0.00 | 0.00 | 73 | 1014.4 |
| 20260508075800 | 66 | 255 | 2.6 | 3.5 | 0.00 | 0.00 | 0.00 | 73 | 1014.4 |
| 20260508075257 | 67 | 252 | 1.7 | 1.7 | 0.00 | 0.00 | 0.00 | 73 | 1014.2 |
| 20260508074755 | 67 | 274 | 0.9 | 0.9 | 0.00 | 0.00 | 0.00 | 73 | 1014.3 |
| 20260508074251 | 66 | 256 | 1.7 | 1.7 | 0.00 | 0.00 | 0.00 | 75 | 1014.3 |
| 20260508073749 | 67 | 279 | 0.9 | 0.9 | 0.00 | 0.00 | 0.00 | 75 | 1014.3 |
| 20260508073247 | 67 | 262 | 1.7 | 1.7 | 0.00 | 0.00 | 0.00 | 76 | 1014.3 |
| 20260508072742 | 67 | 269 | 0.9 | 0.9 | 0.00 | 0.00 | 0.00 | 76 | 1014.3 |
| 20260508072239 | 67 | 275 | 0.0 | 0.0 | 0.00 | 0.00 | 0.00 | 75 | 1014.2 |
| 20260508071737 | 66 | 337 | 0.0 | 0.0 | 0.00 | 0.00 | 0.00 | 76 | 1014.2 |
| 20260508071235 | 67 | 46 | 0.0 | 0.0 | 0.00 | 0.00 | 0.00 | 76 | 1014.2 |
| 20260508070732 | 67 | 348 | 0.0 | 0.0 | 0.00 | 0.00 | 0.00 | 75 | 1013.9 |
| 20260508070231 | 67 | 259 | 0.0 | 0.0 | 0.00 | 0.00 | 0.00 | 75 | 1014.2 |
| 20260508065727 | 67 | 32 | 0.0 | 0.0 | 0.00 | 0.00 | 0.00 | 76 | 1014.2 |
| 20260508065225 | 67 | 41 | 0.0 | 0.0 | 0.00 | 0.00 | 0.00 | 76 | 1014.3 |
| 20260508064723 | 67 | 41 | 0.0 | 0.0 | 0.00 | 0.00 | 0.00 | 76 | 1014.2 |
| 20260508064221 | 67 | 45 | 0.0 | 0.0 | 0.00 | 0.00 | 0.00 | 75 | 1014.1 |
| 20260508063718 | 68 | 45 | 0.0 | 0.0 | 0.00 | 0.00 | 0.00 | 75 | 1014.2 |
| 20260508063216 | 68 | 44 | 0.0 | 0.9 | 0.00 | 0.00 | 0.00 | 74 | 1014.1 |
| 20260508062713 | 68 | 53 | 0.0 | 0.0 | 0.00 | 0.00 | 0.00 | 74 | 1014.1 |
| 20260508062210 | 68 | 72 | 0.0 | 0.9 | 0.00 | 0.00 | 0.00 | 73 | 1014.0 |
| 20260508061707 | 68 | 61 | 0.0 | 0.9 | 0.00 | 0.00 | 0.00 | 73 | 1014.0 |
| 20260508061205 | 68 | 42 | 0.0 | 0.0 | 0.00 | 0.00 | 0.00 | 72 | 1013.8 |
| 20260508060702 | 69 | 39 | 0.0 | 0.0 | 0.00 | 0.00 | 0.00 | 72 | 1013.9 |
| 20260508060158 | 69 | 279 | 0.0 | 0.0 | 0.00 | 0.00 | 0.00 | 72 | 1014.0 |
| 20260508055654 | 69 | 250 | 1.7 | 1.7 | 0.00 | 0.00 | 0.00 | 71 | 1014.1 |
| 20260508055151 | 69 | 350 | 0.0 | 0.0 | 0.00 | 0.00 | 0.00 | 71 | 1014.0 |
| 20260508054647 | 69 | 346 | 0.0 | 0.0 | 0.00 | 0.00 | 0.00 | 71 | 1013.9 |
| 20260508054145 | 69 | 294 | 0.0 | 0.0 | 0.00 | 0.00 | 0.00 | 70 | 1014.0 |
| 20260508053642 | 70 | 317 | 0.0 | 0.0 | 0.00 | 0.00 | 0.00 | 70 | 1013.9 |
| 20260508053139 | 70 | 231 | 0.0 | 0.0 | 0.00 | 0.00 | 0.00 | 70 | 1014.0 |
| 20260508052637 | 70 | 231 | 0.9 | 0.9 | 0.00 | 0.00 | 0.00 | 70 | 1014.0 |
| 20260508052134 | 70 | 327 | 0.0 | 0.0 | 0.00 | 0.00 | 0.00 | 70 | 1013.9 |
| 20260508051629 | 70 | 329 | 0.0 | 0.9 | 0.00 | 0.00 | 0.00 | 69 | 1013.9 |
| 20260508051125 | 71 | 1 | 0.0 | 0.0 | 0.00 | 0.00 | 0.00 | 69 | 1013.9 |
| 20260508050621 | 71 | 40 | 0.0 | 0.0 | 0.00 | 0.00 | 0.00 | 68 | 1013.8 |
| 20260508050119 | 71 | 37 | 0.0 | 0.0 | 0.00 | 0.00 | 0.00 | 68 | 1014.1 |
| 20260508045615 | 71 | 351 | 0.0 | 0.9 | 0.00 | 0.00 | 0.00 | 68 | 1013.9 |
| 20260508045113 | 71 | 40 | 0.0 | 0.0 | 0.00 | 0.00 | 0.00 | 68 | 1014.1 |
| 20260508044610 | 71 | 19 | 0.0 | 0.0 | 0.00 | 0.00 | 0.00 | 68 | 1014.0 |
| 20260508044106 | 71 | 62 | 0.0 | 0.0 | 0.00 | 0.00 | 0.00 | 68 | 1014.1 |
| 20260508043603 | 71 | 62 | 0.0 | 0.0 | 0.00 | 0.00 | 0.00 | 67 | 1013.9 |
| 20260508043100 | 72 | 68 | 0.0 | 0.0 | 0.00 | 0.00 | 0.00 | 67 | 1013.9 |
| 20260508042557 | 72 | 22 | 0.0 | 0.0 | 0.00 | 0.00 | 0.00 | 66 | 1013.9 |
| 20260508042054 | 73 | 55 | 0.0 | 0.0 | 0.00 | 0.00 | 0.00 | 66 | 1013.8 |
| 20260508041550 | 73 | 105 | 0.9 | 0.9 | 0.00 | 0.00 | 0.00 | 66 | 1013.7 |
| 20260508041047 | 73 | 240 | 0.0 | 0.0 | 0.00 | 0.00 | 0.00 | 65 | 1013.6 |
| 20260508040544 | 74 | 241 | 0.9 | 0.9 | 0.00 | 0.00 | 0.00 | 64 | 1013.5 |
| 20260508040042 | 74 | 243 | 0.9 | 0.9 | 0.00 | 0.00 | 0.00 | 64 | 1013.4 |
| 20260508035538 | 74 | 247 | 0.9 | 0.9 | 0.00 | 0.00 | 0.00 | 63 | 1013.4 |
| 20260508035035 | 75 | 244 | 1.7 | 1.7 | 0.00 | 0.00 | 0.00 | 62 | 1013.4 |
| 20260508034532 | 75 | 237 | 0.9 | 1.7 | 0.00 | 0.00 | 0.00 | 62 | 1013.2 |
| 20260508034029 | 75 | 237 | 0.9 | 0.9 | 0.00 | 0.00 | 0.00 | 61 | 1013.3 |
| 20260508033527 | 75 | 257 | 0.9 | 0.9 | 0.00 | 0.00 | 0.00 | 61 | 1013.3 |
| 20260508033025 | 75 | 241 | 0.0 | 0.0 | 0.00 | 0.00 | 0.00 | 60 | 1013.3 |
| 20260508032521 | 76 | 240 | 1.7 | 1.7 | 0.00 | 0.00 | 0.00 | 59 | 1013.0 |
| 20260508032019 | 76 | 237 | 0.9 | 1.7 | 0.00 | 0.00 | 0.00 | 59 | 1013.1 |
| 20260508031516 | 77 | 252 | 0.0 | 0.9 | 0.00 | 0.00 | 0.00 | 58 | 1013.1 |
| 20260508031011 | 77 | 238 | 0.0 | 0.0 | 0.00 | 0.00 | 0.00 | 58 | 1012.9 |
| 20260508030509 | 77 | 269 | 0.0 | 0.0 | 0.00 | 0.00 | 0.00 | 57 | 1013.0 |
| 20260508030007 | 78 | 271 | 0.0 | 0.0 | 0.00 | 0.00 | 0.00 | 56 | 1012.7 |
| 20260508025502 | 78 | 273 | 0.0 | 0.0 | 0.00 | 0.00 | 0.00 | 56 | 1012.7 |
| 20260508024959 | 79 | 269 | 0.0 | 0.0 | 0.00 | 0.00 | 0.00 | 54 | 1012.8 |
| 20260508024455 | 80 | 264 | 0.9 | 0.9 | 0.00 | 0.00 | 0.00 | 53 | 1012.6 |
| 20260508023952 | 80 | 305 | 0.0 | 0.0 | 0.00 | 0.00 | 0.00 | 52 | 1012.6 |
| 20260508023449 | 81 | 244 | 0.9 | 1.7 | 0.00 | 0.00 | 0.00 | 51 | 1012.6 |
| 20260508022946 | 81 | 266 | 0.9 | 0.9 | 0.00 | 0.00 | 0.00 | 50 | 1012.5 |
| 20260508022442 | 82 | 269 | 0.9 | 0.9 | 0.00 | 0.00 | 0.00 | 49 | 1012.5 |
| 20260508021939 | 82 | 269 | 1.7 | 1.7 | 0.00 | 0.00 | 0.00 | 48 | 1012.4 |
| 20260508021435 | 83 | 309 | 2.6 | 3.5 | 0.00 | 0.00 | 0.00 | 47 | 1012.6 |
| 20260508020931 | 83 | 250 | 2.6 | 3.5 | 0.00 | 0.00 | 0.00 | 46 | 1012.6 |
| 20260508020429 | 84 | 284 | 4.3 | 6.1 | 0.00 | 0.00 | 0.00 | 46 | 1012.6 |
| 20260508015926 | 84 | 277 | 3.5 | 3.5 | 0.00 | 0.00 | 0.00 | 45 | 1012.6 |
| 20260508015424 | 84 | 252 | 5.2 | 6.1 | 0.00 | 0.00 | 0.00 | 44 | 1012.5 |
| 20260508014920 | 84 | 274 | 5.2 | 6.1 | 0.00 | 0.00 | 0.00 | 44 | 1012.5 |
| 20260508014417 | 84 | 264 | 1.7 | 1.7 | 0.00 | 0.00 | 0.00 | 44 | 1012.4 |
| 20260508013912 | 85 | 256 | 3.5 | 4.3 | 0.00 | 0.00 | 0.00 | 43 | 1012.4 |
| 20260508013408 | 85 | 262 | 0.9 | 1.7 | 0.00 | 0.00 | 0.00 | 44 | 1012.3 |
| 20260508012906 | 85 | 266 | 3.5 | 4.3 | 0.00 | 0.00 | 0.00 | 43 | 1012.4 |
| 20260508012403 | 85 | 263 | 0.9 | 1.7 | 0.00 | 0.00 | 0.00 | 42 | 1012.2 |
| 20260508011901 | 85 | 288 | 3.5 | 4.3 | 0.00 | 0.00 | 0.00 | 42 | 1012.3 |
| 20260508011359 | 86 | 261 | 4.3 | 5.2 | 0.00 | 0.00 | 0.00 | 41 | 1012.3 |
| 20260508010855 | 86 | 263 | 2.6 | 3.5 | 0.00 | 0.00 | 0.00 | 41 | 1012.4 |
| 20260508010353 | 86 | 266 | 2.6 | 4.3 | 0.00 | 0.00 | 0.00 | 41 | 1012.3 |
| 20260508005850 | 86 | 280 | 1.7 | 3.5 | 0.00 | 0.00 | 0.00 | 41 | 1012.6 |
| 20260508005346 | 86 | 262 | 2.6 | 4.3 | 0.00 | 0.00 | 0.00 | 40 | 1012.4 |
| 20260508004843 | 86 | 271 | 1.7 | 4.3 | 0.00 | 0.00 | 0.00 | 42 | 1012.6 |
| 20260508004339 | 87 | 238 | 1.7 | 3.5 | 0.00 | 0.00 | 0.00 | 41 | 1012.5 |
| 20260508003835 | 86 | 282 | 2.6 | 3.5 | 0.00 | 0.00 | 0.00 | 41 | 1012.4 |
| 20260508003333 | 86 | 249 | 4.3 | 5.2 | 0.00 | 0.00 | 0.00 | 40 | 1012.6 |
| 20260508002830 | 86 | 274 | 3.5 | 5.2 | 0.00 | 0.00 | 0.00 | 39 | 1012.6 |
| 20260508002326 | 86 | 247 | 3.5 | 5.2 | 0.00 | 0.00 | 0.00 | 40 | 1012.6 |
| 20260508001823 | 87 | 249 | 3.5 | 5.2 | 0.00 | 0.00 | 0.00 | 40 | 1012.9 |
| 20260508001319 | 86 | 304 | 2.6 | 3.5 | 0.00 | 0.00 | 0.00 | 41 | 1012.6 |
| 20260508000815 | 86 | 302 | 1.7 | 1.7 | 0.00 | 0.00 | 0.00 | 41 | 1012.8 |
| 20260508000312 | 86 | 264 | 3.5 | 4.3 | 0.00 | 0.00 | 0.00 | 41 | 1012.8 |
| 20260507235808 | 86 | 266 | 3.5 | 4.3 | 0.00 | 0.00 | 0.00 | 40 | 1012.7 |
| 20260507235307 | 86 | 263 | 3.5 | 4.3 | 0.00 | 0.00 | 0.00 | 41 | 1012.8 |
| 20260507234803 | 87 | 282 | 3.5 | 5.2 | 0.00 | 0.00 | 0.00 | 41 | 1012.8 |
| 20260507234259 | 87 | 260 | 1.7 | 3.5 | 0.00 | 0.00 | 0.00 | 40 | 1013.1 |
| 20260507233755 | 86 | 263 | 1.7 | 3.5 | 0.00 | 0.00 | 0.00 | 41 | 1013.0 |
| 20260507233253 | 86 | 250 | 4.3 | 5.2 | 0.00 | 0.00 | 0.00 | 40 | 1013.0 |
| 20260507232751 | 85 | 257 | 2.6 | 4.3 | 0.00 | 0.00 | 0.00 | 42 | 1013.1 |
| 20260507232247 | 86 | 248 | 5.2 | 6.1 | 0.00 | 0.00 | 0.00 | 40 | 1013.2 |
| 20260507231744 | 85 | 243 | 2.6 | 4.3 | 0.00 | 0.00 | 0.00 | 41 | 1013.2 |
| 20260507231241 | 86 | 251 | 2.6 | 3.5 | 0.00 | 0.00 | 0.00 | 41 | 1013.0 |
| 20260507230737 | 86 | 273 | 4.3 | 5.2 | 0.00 | 0.00 | 0.00 | 41 | 1013.1 |
| 20260507230235 | 86 | 247 | 2.6 | 3.5 | 0.00 | 0.00 | 0.00 | 39 | 1013.3 |
| 20260507225734 | 85 | 289 | 1.7 | 1.7 | 0.00 | 0.00 | 0.00 | 41 | 1013.4 |
| 20260507225231 | 85 | 254 | 3.5 | 4.3 | 0.00 | 0.00 | 0.00 | 40 | 1013.5 |
| 20260507224727 | 86 | 269 | 2.6 | 3.5 | 0.00 | 0.00 | 0.00 | 39 | 1013.5 |
| 20260507224224 | 85 | 348 | 1.7 | 1.7 | 0.00 | 0.00 | 0.00 | 39 | 1013.6 |
| 20260507223720 | 84 | 231 | 2.6 | 3.5 | 0.00 | 0.00 | 0.00 | 40 | 1013.6 |
| 20260507223217 | 84 | 253 | 0.9 | 1.7 | 0.00 | 0.00 | 0.00 | 40 | 1013.8 |
| 20260507222714 | 85 | 258 | 2.6 | 4.3 | 0.00 | 0.00 | 0.00 | 39 | 1014.0 |
| 20260507222210 | 84 | 277 | 2.6 | 3.5 | 0.00 | 0.00 | 0.00 | 39 | 1013.8 |
| 20260507221707 | 85 | 247 | 2.6 | 4.3 | 0.00 | 0.00 | 0.00 | 40 | 1013.9 |
| 20260507221203 | 85 | 287 | 0.9 | 0.9 | 0.00 | 0.00 | 0.00 | 40 | 1014.0 |
| 20260507220700 | 85 | 286 | 1.7 | 1.7 | 0.00 | 0.00 | 0.00 | 40 | 1014.3 |
| 20260507220158 | 85 | 254 | 1.7 | 1.7 | 0.00 | 0.00 | 0.00 | 39 | 1014.3 |
| 20260507215654 | 84 | 233 | 0.9 | 0.9 | 0.00 | 0.00 | 0.00 | 40 | 1014.4 |
| 20260507215152 | 84 | 39 | 0.9 | 0.9 | 0.00 | 0.00 | 0.00 | 40 | 1014.4 |
| 20260507214649 | 85 | 75 | 0.9 | 1.7 | 0.00 | 0.00 | 0.00 | 38 | 1014.3 |
| 20260507214145 | 84 | 264 | 2.6 | 3.5 | 0.00 | 0.00 | 0.00 | 39 | 1014.5 |
| 20260507213641 | 84 | 260 | 2.6 | 4.3 | 0.00 | 0.00 | 0.00 | 40 | 1014.6 |
| 20260507213138 | 83 | 44 | 0.9 | 1.7 | 0.00 | 0.00 | 0.00 | 39 | 1014.7 |
| 20260507212634 | 83 | 267 | 0.9 | 0.9 | 0.00 | 0.00 | 0.00 | 39 | 1014.6 |
| 20260507212131 | 83 | 249 | 2.6 | 3.5 | 0.00 | 0.00 | 0.00 | 41 | 1015.0 |
| 20260507211628 | 84 | 42 | 0.9 | 0.9 | 0.00 | 0.00 | 0.00 | 41 | 1014.7 |
| 20260507211124 | 84 | 298 | 0.0 | 0.0 | 0.00 | 0.00 | 0.00 | 41 | 1014.9 |
| 20260507210622 | 84 | 178 | 2.6 | 3.5 | 0.00 | 0.00 | 0.00 | 39 | 1015.0 |
| 20260507210118 | 83 | 253 | 3.5 | 4.3 | 0.00 | 0.00 | 0.00 | 38 | 1015.0 |
| 20260507205615 | 83 | 107 | 0.9 | 0.9 | 0.00 | 0.00 | 0.00 | 39 | 1015.1 |
| 20260507205111 | 82 | 242 | 0.0 | 0.0 | 0.00 | 0.00 | 0.00 | 41 | 1015.3 |
| 20260507204607 | 82 | 250 | 1.7 | 1.7 | 0.00 | 0.00 | 0.00 | 41 | 1015.1 |
| 20260507204105 | 82 | 20 | 0.9 | 0.9 | 0.00 | 0.00 | 0.00 | 40 | 1015.1 |
| 20260507203603 | 83 | 240 | 1.7 | 1.7 | 0.00 | 0.00 | 0.00 | 42 | 1015.4 |
| 20260507203100 | 83 | 45 | 1.7 | 1.7 | 0.00 | 0.00 | 0.00 | 40 | 1015.4 |
| 20260507202555 | 82 | 341 | 0.0 | 0.9 | 0.00 | 0.00 | 0.00 | 41 | 1015.6 |
| 20260507202052 | 82 | 234 | 1.7 | 1.7 | 0.00 | 0.00 | 0.00 | 43 | 1015.4 |
| 20260507201547 | 81 | 255 | 3.5 | 5.2 | 0.00 | 0.00 | 0.00 | 46 | 1015.5 |
| 20260507201044 | 81 | 236 | 0.9 | 0.9 | 0.00 | 0.00 | 0.00 | 44 | 1015.7 |
| 20260507200540 | 82 | 37 | 1.7 | 1.7 | 0.00 | 0.00 | 0.00 | 41 | 1015.6 |
| 20260507200036 | 81 | 341 | 1.7 | 3.5 | 0.00 | 0.00 | 0.00 | 42 | 1015.6 |
| 20260507195533 | 81 | 12 | 3.5 | 4.3 | 0.00 | 0.00 | 0.00 | 43 | 1015.8 |
| 20260507195031 | 80 | 241 | 2.6 | 3.5 | 0.00 | 0.00 | 0.00 | 43 | 1015.7 |
| 20260507194527 | 80 | 247 | 2.6 | 3.5 | 0.00 | 0.00 | 0.00 | 46 | 1015.9 |
| 20260507194023 | 80 | 5 | 0.9 | 1.7 | 0.00 | 0.00 | 0.00 | 45 | 1016.1 |
| 20260507193520 | 81 | 273 | 1.7 | 1.7 | 0.00 | 0.00 | 0.00 | 44 | 1015.7 |
| 20260507193017 | 80 | 256 | 3.5 | 4.3 | 0.00 | 0.00 | 0.00 | 43 | 1016.0 |
| 20260507192513 | 79 | 66 | 0.0 | 0.9 | 0.00 | 0.00 | 0.00 | 44 | 1016.0 |
| 20260507192010 | 80 | 262 | 4.3 | 5.2 | 0.00 | 0.00 | 0.00 | 44 | 1016.1 |
| 20260507191506 | 79 | 312 | 0.9 | 0.9 | 0.00 | 0.00 | 0.00 | 45 | 1016.1 |
| 20260507191003 | 78 | 275 | 2.6 | 3.5 | 0.00 | 0.00 | 0.00 | 46 | 1016.4 |
| 20260507190500 | 79 | 337 | 0.9 | 0.9 | 0.00 | 0.00 | 0.00 | 46 | 1016.2 |
| 20260507185959 | 79 | 262 | 2.6 | 3.5 | 0.00 | 0.00 | 0.00 | 45 | 1016.3 |
| 20260507185456 | 79 | 31 | 0.0 | 0.9 | 0.00 | 0.00 | 0.00 | 46 | 1016.2 |
| 20260507184953 | 77 | 241 | 2.6 | 3.5 | 0.00 | 0.00 | 0.00 | 50 | 1016.4 |
| 20260507184451 | 78 | 226 | 1.7 | 1.7 | 0.00 | 0.00 | 0.00 | 49 | 1016.6 |
| 20260507183949 | 78 | 48 | 0.0 | 0.9 | 0.00 | 0.00 | 0.00 | 49 | 1016.9 |
| 20260507183445 | 77 | 336 | 0.0 | 0.9 | 0.00 | 0.00 | 0.00 | 51 | 1016.6 |
| 20260507182942 | 76 | 267 | 0.9 | 1.7 | 0.00 | 0.00 | 0.00 | 52 | 1016.8 |
| 20260507182438 | 77 | 297 | 0.9 | 0.9 | 0.00 | 0.00 | 0.00 | 52 | 1016.8 |
| 20260507181934 | 76 | 247 | 1.7 | 1.7 | 0.00 | 0.00 | 0.00 | 53 | 1016.6 |
| 20260507181430 | 75 | 29 | 0.9 | 0.9 | 0.00 | 0.00 | 0.00 | 51 | 1016.8 |
| 20260507180927 | 76 | 326 | 0.0 | 0.0 | 0.00 | 0.00 | 0.00 | 53 | 1016.9 |
| 20260507180424 | 76 | 238 | 0.9 | 0.9 | 0.00 | 0.00 | 0.00 | 53 | 1016.9 |
| 20260507175920 | 75 | 255 | 1.7 | 1.7 | 0.00 | 0.00 | 0.00 | 53 | 1016.9 |
| 20260507175417 | 74 | 269 | 0.9 | 0.9 | 0.00 | 0.00 | 0.00 | 55 | 1016.8 |
| 20260507174915 | 74 | 248 | 1.7 | 1.7 | 0.00 | 0.00 | 0.00 | 56 | 1017.0 |
| 20260507174412 | 74 | 244 | 1.7 | 1.7 | 0.00 | 0.00 | 0.00 | 56 | 1017.1 |
| 20260507173909 | 74 | 271 | 0.0 | 0.9 | 0.00 | 0.00 | 0.00 | 56 | 1016.9 |
| 20260507173406 | 73 | 254 | 0.9 | 0.9 | 0.00 | 0.00 | 0.00 | 57 | 1017.0 |
| 20260507172902 | 73 | 246 | 0.0 | 0.9 | 0.00 | 0.00 | 0.00 | 56 | 1017.0 |
| 20260507172359 | 73 | 285 | 2.6 | 3.5 | 0.00 | 0.00 | 0.00 | 57 | 1017.2 |
| 20260507171855 | 73 | 234 | 0.9 | 0.9 | 0.00 | 0.00 | 0.00 | 58 | 1017.2 |
| 20260507171352 | 72 | 288 | 2.6 | 3.5 | 0.00 | 0.00 | 0.00 | 58 | 1017.5 |
| 20260507170849 | 73 | 311 | 0.0 | 0.9 | 0.00 | 0.00 | 0.00 | 58 | 1017.2 |
| 20260507170345 | 73 | 327 | 1.7 | 1.7 | 0.00 | 0.00 | 0.00 | 58 | 1017.4 |
| 20260507165842 | 73 | 237 | 1.7 | 1.7 | 0.00 | 0.00 | 0.00 | 57 | 1017.3 |
| 20260507165337 | 72 | 286 | 0.0 | 0.9 | 0.00 | 0.00 | 0.00 | 58 | 1017.4 |
| 20260507164834 | 71 | 327 | 0.0 | 0.0 | 0.00 | 0.00 | 0.00 | 59 | 1017.3 |
| 20260507164331 | 71 | 265 | 0.9 | 1.7 | 0.00 | 0.00 | 0.00 | 58 | 1017.2 |
| 20260507163828 | 70 | 258 | 0.0 | 0.9 | 0.00 | 0.00 | 0.00 | 62 | 1017.3 |
| 20260507163325 | 70 | 280 | 0.9 | 1.7 | 0.00 | 0.00 | 0.00 | 62 | 1017.3 |
| 20260507162821 | 70 | 305 | 0.9 | 1.7 | 0.00 | 0.00 | 0.00 | 62 | 1017.2 |
| 20260507162317 | 69 | 308 | 0.9 | 0.9 | 0.00 | 0.00 | 0.00 | 63 | 1017.3 |
| 20260507161815 | 69 | 320 | 0.0 | 0.0 | 0.00 | 0.00 | 0.00 | 65 | 1017.3 |
| 20260507161311 | 68 | 271 | 2.6 | 3.5 | 0.00 | 0.00 | 0.00 | 65 | 1017.6 |
| 20260507160808 | 68 | 269 | 0.9 | 1.7 | 0.00 | 0.00 | 0.00 | 65 | 1017.4 |
| 20260507160304 | 68 | 285 | 1.7 | 1.7 | 0.00 | 0.00 | 0.00 | 65 | 1017.4 |
| 20260507155759 | 69 | 249 | 2.6 | 3.5 | 0.00 | 0.00 | 0.00 | 65 | 1017.4 |
| 20260507155256 | 67 | 280 | 0.0 | 0.9 | 0.00 | 0.00 | 0.00 | 67 | 1017.3 |
| 20260507154752 | 66 | 306 | 0.0 | 0.9 | 0.00 | 0.00 | 0.00 | 68 | 1017.4 |
| 20260507154250 | 66 | 6 | 0.0 | 0.0 | 0.00 | 0.00 | 0.00 | 67 | 1017.3 |
| 20260507153746 | 65 | 290 | 0.9 | 0.9 | 0.00 | 0.00 | 0.00 | 68 | 1017.5 |
| 20260507153243 | 65 | 308 | 0.9 | 0.9 | 0.00 | 0.00 | 0.00 | 69 | 1017.3 |
| 20260507152740 | 65 | 312 | 0.9 | 0.9 | 0.00 | 0.00 | 0.00 | 71 | 1017.3 |
| 20260507152236 | 64 | 280 | 0.9 | 0.9 | 0.00 | 0.00 | 0.00 | 72 | 1017.4 |
| 20260507151732 | 63 | 271 | 0.9 | 0.9 | 0.00 | 0.00 | 0.00 | 72 | 1017.5 |
| 20260507151228 | 64 | 339 | 0.9 | 0.9 | 0.00 | 0.00 | 0.00 | 71 | 1017.6 |
| 20260507150726 | 64 | 25 | 0.0 | 0.0 | 0.00 | 0.00 | 0.00 | 73 | 1017.4 |
| 20260507150222 | 64 | 25 | 0.0 | 0.0 | 0.00 | 0.00 | 0.00 | 74 | 1017.6 |
| 20260507145718 | 63 | 25 | 0.0 | 0.0 | 0.00 | 0.00 | 0.00 | 75 | 1017.3 |
| 20260507145215 | 62 | 27 | 0.0 | 0.0 | 0.00 | 0.00 | 0.00 | 75 | 1017.4 |
| 20260507144712 | 61 | 12 | 0.0 | 0.0 | 0.00 | 0.00 | 0.00 | 77 | 1017.4 |
| 20260507144210 | 61 | 12 | 0.0 | 0.0 | 0.00 | 0.00 | 0.00 | 79 | 1017.4 |
| 20260507143706 | 60 | 275 | 0.0 | 0.0 | 0.00 | 0.00 | 0.00 | 80 | 1017.4 |
| 20260507143203 | 60 | 283 | 0.9 | 0.9 | 0.00 | 0.00 | 0.00 | 80 | 1017.5 |
| 20260507142659 | 59 | 280 | 0.9 | 0.9 | 0.00 | 0.00 | 0.00 | 81 | 1017.7 |
| 20260507142155 | 59 | 279 | 0.0 | 0.0 | 0.00 | 0.00 | 0.00 | 82 | 1017.4 |
| 20260507141652 | 58 | 280 | 0.0 | 0.0 | 0.00 | 0.00 | 0.00 | 83 | 1017.3 |
| 20260507141149 | 58 | 281 | 0.9 | 0.9 | 0.00 | 0.00 | 0.00 | 83 | 1017.3 |
| 20260507140645 | 58 | 281 | 0.0 | 0.0 | 0.00 | 0.00 | 0.00 | 84 | 1017.3 |
| 20260507140143 | 58 | 283 | 0.0 | 0.9 | 0.00 | 0.00 | 0.00 | 84 | 1017.0 |
| 20260507135640 | 57 | 283 | 0.0 | 0.0 | 0.00 | 0.00 | 0.00 | 85 | 1016.9 |
| 20260507135137 | 57 | 283 | 0.0 | 0.0 | 0.00 | 0.00 | 0.00 | 86 | 1017.0 |
| 20260507134633 | 57 | 283 | 0.0 | 0.0 | 0.00 | 0.00 | 0.00 | 86 | 1017.2 |
| 20260507134130 | 57 | 275 | 0.9 | 0.9 | 0.00 | 0.00 | 0.00 | 86 | 1017.1 |
| 20260507133626 | 57 | 293 | 0.0 | 0.0 | 0.00 | 0.00 | 0.00 | 85 | 1016.8 |
| 20260507133123 | 57 | 292 | 0.0 | 0.0 | 0.00 | 0.00 | 0.00 | 85 | 1016.9 |
| 20260507132620 | 57 | 291 | 0.0 | 0.9 | 0.00 | 0.00 | 0.00 | 85 | 1017.2 |
| 20260507132116 | 56 | 2 | 0.0 | 0.0 | 0.00 | 0.00 | 0.00 | 85 | 1016.9 |
| 20260507131613 | 56 | 2 | 0.0 | 0.0 | 0.00 | 0.00 | 0.00 | 84 | 1016.9 |
| 20260507131111 | 56 | 2 | 0.0 | 0.0 | 0.00 | 0.00 | 0.00 | 84 | 1016.8 |
| 20260507130607 | 56 | 2 | 0.0 | 0.0 | 0.00 | 0.00 | 0.00 | 84 | 1016.7 |
| 20260507130106 | 56 | 2 | 0.0 | 0.0 | 0.00 | 0.00 | 0.00 | 84 | 1016.5 |
| 20260507125604 | 56 | 2 | 0.0 | 0.0 | 0.00 | 0.00 | 0.00 | 84 | 1016.7 |
| 20260507125101 | 56 | 2 | 0.0 | 0.0 | 0.00 | 0.00 | 0.00 | 84 | 1016.7 |
| 20260507124557 | 56 | 2 | 0.0 | 0.0 | 0.00 | 0.00 | 0.00 | 83 | 1016.7 |
| 20260507124055 | 56 | 40 | 0.0 | 0.0 | 0.00 | 0.00 | 0.00 | 83 | 1016.5 |
| 20260507123553 | 56 | 40 | 0.0 | 0.0 | 0.00 | 0.00 | 0.00 | 82 | 1016.7 |
| 20260507123050 | 57 | 40 | 0.0 | 0.0 | 0.00 | 0.00 | 0.00 | 82 | 1016.6 |
| 20260507122545 | 57 | 40 | 0.0 | 0.0 | 0.00 | 0.00 | 0.00 | 82 | 1016.7 |
| 20260507122041 | 57 | 40 | 0.0 | 0.0 | 0.00 | 0.00 | 0.00 | 82 | 1016.7 |
| 20260507121537 | 57 | 40 | 0.0 | 0.0 | 0.00 | 0.00 | 0.00 | 82 | 1016.5 |
| 20260507121033 | 57 | 40 | 0.0 | 0.0 | 0.00 | 0.00 | 0.00 | 82 | 1016.6 |
| 20260507120529 | 57 | 41 | 0.0 | 0.0 | 0.00 | 0.00 | 0.00 | 82 | 1016.5 |
| 20260507120026 | 57 | 41 | 0.0 | 0.0 | 0.00 | 0.00 | 0.00 | 82 | 1016.6 |
| 20260507115522 | 58 | 42 | 0.0 | 0.0 | 0.00 | 0.00 | 0.00 | 82 | 1016.4 |
| 20260507115018 | 58 | 48 | 0.0 | 0.0 | 0.00 | 0.00 | 0.00 | 82 | 1016.6 |
| 20260507114514 | 58 | 51 | 0.0 | 0.0 | 0.00 | 0.00 | 0.00 | 82 | 1016.5 |
| 20260507114012 | 58 | 51 | 0.0 | 0.0 | 0.00 | 0.00 | 0.00 | 82 | 1016.7 |
| 20260507113509 | 58 | 51 | 0.0 | 0.0 | 0.00 | 0.00 | 0.00 | 82 | 1016.6 |
| 20260507113006 | 58 | 51 | 0.0 | 0.0 | 0.00 | 0.00 | 0.00 | 83 | 1016.5 |
| 20260507112503 | 58 | 342 | 0.0 | 0.0 | 0.00 | 0.00 | 0.00 | 83 | 1016.8 |
| 20260507112000 | 58 | 336 | 0.0 | 0.0 | 0.00 | 0.00 | 0.00 | 83 | 1016.7 |